Date,TemperatureHighF,TemperatureAvgF,TemperatureLowF,DewpointHighF,DewpointAvgF,DewpointLowF,HumidityHigh,HumidityAvg,HumidityLow,PressureMaxIn,PressureMinIn,WindSpeedMaxMPH,WindSpeedAvgMPH,GustSpeedMaxMPH,PrecipitationSumIn
2013-4-8,41,38,32,28,20,13,81,50,33,0.00,40.00,11,7,25,0.00
2013-4-9,52,42,32,19,13,9,57,34,19,0.00,40.00,8,4,22,0.00
2013-4-10,65,55,37,33,27,17,47,34,27,0.00,40.00,7,4,21,0.00
2013-4-11,59,53,42,39,32,20,84,48,27,0.00,40.00,8,3,19,0.00
2013-4-12,61,52,40,34,27,22,51,39,28,0.00,40.00,9,4,20,0.00
2013-4-13,54,54,53,26,22,19,35,30,25,0.00,40.00,7,6,16,0.00
2013-4-15,47,37,29,29,24,16,94,64,29,0.00,40.00,9,6,28,0.00
2013-4-16,34,30,28,27,21,9,93,72,34,0.00,40.00,9,5,34,0.00
2013-4-17,45,33,27,22,16,9,73,52,23,0.00,40.00,6,3,19,0.00
2013-4-18,55,52,48,15,13,12,26,21,18,0.00,40.00,5,4,16,0.00
2013-4-19,62,53,39,30,24,16,45,32,22,0.00,40.00,10,6,26,0.00
2013-4-20,62,53,41,31,27,14,57,38,16,0.00,40.00,6,4,15,0.00
2013-4-21,71,57,46,27,23,18,46,29,17,0.00,40.00,5,3,13,0.00
2013-4-22,69,60,47,21,17,11,23,19,14,0.00,40.00,10,6,24,0.00
2013-4-23,60,48,37,14,8,1,33,21,13,0.00,40.00,5,3,18,0.00
2013-4-24,63,53,41,17,6,0,28,16,11,0.00,40.00,8,4,18,0.00
2013-4-25,69,55,40,26,15,3,31,21,12,0.00,40.00,11,4,21,0.00
2013-4-26,73,60,46,34,26,14,44,29,11,0.00,40.00,10,4,23,0.00
2013-4-27,75,59,47,38,33,23,55,39,15,0.00,40.00,8,3,18,0.00
2013-4-30,59,58,56,24,23,22,28,26,25,0.00,40.00,5,5,15,0.00